Location: Asheville, NC
(35.6000°N, 82.5500°W)
Time: 14:21:22
(UTC-04:00)

Vanguard 2 Rocket - Pass Details

Date: 12 December 2017
Orbit: 554 x 3327 km, 32.9° (Epoch: 17 July)

Event Time Altitude Azimuth Distance (km) Brightness Sun altitude
Rises 23:00:48 0° 272° (W) 6,121 11.4 -68.0°
Reaches altitude 10° 23:04:20 10° 272° (W) 5,393 11.0 -68.7°
Enters shadow 23:09:38 28° 270° (W) 4,418 10.3 -69.6°
Maximum altitude 23:22:13 80° 189° (S) 3,324 - -71.7°
Drops below altitude 10° 23:42:14 10° 106° (ESE) 5,931 - -74.6°
Sets 23:46:20 0° 105° (ESE) 6,728 - -75.1°
